Simultaneous Nadir Overpasses (SNOs) Predictions

Prediction of SNOs between GOES-16 and NPP Satellite Orbit:

Table of predicted SNOs for the next 14.0 days since TLE Epoch: 11/29/2019
Index Date Time (GOES-16) GOES-16 Lat,Lon NPP Lat,Lon Distance(km) Time Diff (sec)
1 11/30/2019 18:41:47 -0.00, -75.22 -0.80, -78.76 403.44 80
2 12/01/2019 18:20:23 0.01, -75.23 0.26, -74.23 113.77 80
3 12/03/2019 06:44:49 -0.01, -75.24 0.95, -79.50 485.37 80
4 12/04/2019 06:23:24 -0.01, -75.25 -0.05, -74.96 32.44 80
5 12/06/2019 18:29:14 0.01, -75.29 -0.10, -75.74 51.18 80
6 12/07/2019 18:07:50 0.02, -75.31 0.96, -71.21 467.16 80
7 12/09/2019 06:32:16 -0.01, -75.33 0.24, -76.48 130.34 80
8 12/10/2019 06:10:51 -0.01, -75.35 -0.76, -71.94 388.17 80
9 12/11/2019 18:35:26 -0.00, -75.38 -0.44, -77.24 212.51 80
10 12/12/2019 18:14:02 0.00, -75.40 0.62, -72.72 306.09 80




NCC Satellite Simultaneous Nadir Overpasses (SNOs) Prediction Service
